GMART KFPY-KTLH

Flight info

Callsign GMART
Flight time 0h 28m
Altitude 2100
Route KFPY / WACISSA / TALLAHASSEE / KTLH
Aircraft C172/L-VGD/C

Departure

Time 2026-04-17 09:39
Airport Perry-Foley Airport (KFPY)

Arrival

Time 2026-04-17 10:08
Airport Tallahassee International Airport (KTLH)
Time Latitude Longitude Altitude Speed Heading
2026-04-17 09:30 30.07671 -83.57584 47 ft 0 kts 90°
2026-04-17 09:34 30.07660 -83.57556 47 ft 11 kts 113°
2026-04-17 09:34 30.07654 -83.57445 47 ft 17 kts 92°
2026-04-17 09:35 30.07652 -83.57276 47 ft 25 kts 91°
2026-04-17 09:35 30.07633 -83.57143 47 ft 12 kts 169°
2026-04-17 09:35 30.07545 -83.57144 47 ft 14 kts 180°
2026-04-17 09:35 30.07427 -83.57146 47 ft 20 kts 181°
2026-04-17 09:36 30.07274 -83.57150 48 ft 24 kts 181°
2026-04-17 09:36 30.07113 -83.57154 48 ft 19 kts 182°
2026-04-17 09:36 30.07019 -83.57156 48 ft 0 kts 182°
2026-04-17 09:37 30.06990 -83.57157 48 ft 12 kts 181°
2026-04-17 09:37 30.06934 -83.57189 48 ft 9 kts 289°
2026-04-17 09:37 30.06949 -83.57221 49 ft 0 kts 297°
2026-04-17 09:38 30.07003 -83.57326 49 ft 41 kts 300°
2026-04-17 09:38 30.07225 -83.57758 92 ft 77 kts 298°
2026-04-17 09:39 30.07512 -83.58338 248 ft 86 kts 297°
2026-04-17 09:39 30.07805 -83.58962 437 ft 92 kts 297°
2026-04-17 09:39 30.08123 -83.59632 629 ft 98 kts 297°
2026-04-17 09:39 30.08500 -83.60302 828 ft 102 kts 305°
2026-04-17 09:40 30.08945 -83.60950 1031 ft 105 kts 308°
2026-04-17 09:40 30.09420 -83.61598 1231 ft 106 kts 308°
2026-04-17 09:40 30.09895 -83.62247 1432 ft 106 kts 308°
2026-04-17 09:40 30.10368 -83.62894 1635 ft 105 kts 308°
2026-04-17 09:41 30.10840 -83.63543 1831 ft 105 kts 308°
2026-04-17 09:41 30.11321 -83.64204 1958 ft 111 kts 308°
2026-04-17 09:41 30.11826 -83.64897 2062 ft 114 kts 308°
2026-04-17 09:41 30.12348 -83.65616 2099 ft 121 kts 308°
2026-04-17 09:42 30.12899 -83.66379 2107 ft 126 kts 308°
2026-04-17 09:42 30.13455 -83.67150 2106 ft 122 kts 308°
2026-04-17 09:42 30.13988 -83.67887 2106 ft 118 kts 308°
2026-04-17 09:42 30.14513 -83.68609 2102 ft 117 kts 308°
2026-04-17 09:43 30.15031 -83.69319 2100 ft 115 kts 308°
2026-04-17 09:43 30.15547 -83.70022 2100 ft 115 kts 308°
2026-04-17 09:43 30.16054 -83.70721 2100 ft 115 kts 308°
2026-04-17 09:43 30.16569 -83.71428 2099 ft 115 kts 308°
2026-04-17 09:44 30.17083 -83.72130 2098 ft 114 kts 308°
2026-04-17 09:44 30.17591 -83.72831 2097 ft 114 kts 308°
2026-04-17 09:44 30.18097 -83.73527 2096 ft 113 kts 308°
2026-04-17 09:44 30.18599 -83.74217 2094 ft 112 kts 308°
2026-04-17 09:45 30.19097 -83.74903 2094 ft 111 kts 308°
2026-04-17 09:45 30.19597 -83.75592 2095 ft 112 kts 308°
2026-04-17 09:45 30.20098 -83.76286 2096 ft 113 kts 308°
2026-04-17 09:45 30.20603 -83.76987 2098 ft 114 kts 308°
2026-04-17 09:46 30.21117 -83.77697 2101 ft 116 kts 308°
2026-04-17 09:46 30.21636 -83.78416 2102 ft 117 kts 308°
2026-04-17 09:46 30.22155 -83.79136 2101 ft 116 kts 308°
2026-04-17 09:46 30.22667 -83.79850 2099 ft 114 kts 308°
2026-04-17 09:47 30.23175 -83.80556 2099 ft 114 kts 308°
2026-04-17 09:47 30.23684 -83.81256 2097 ft 114 kts 308°
2026-04-17 09:47 30.24189 -83.81957 2097 ft 114 kts 308°
2026-04-17 09:47 30.24694 -83.82655 2096 ft 112 kts 308°
2026-04-17 09:48 30.25187 -83.83338 2096 ft 112 kts 308°
2026-04-17 09:48 30.25689 -83.84028 2096 ft 112 kts 308°
2026-04-17 09:48 30.26192 -83.84724 2095 ft 113 kts 308°
2026-04-17 09:48 30.26694 -83.85418 2095 ft 112 kts 308°
2026-04-17 09:49 30.27191 -83.86109 2094 ft 111 kts 308°
2026-04-17 09:49 30.27688 -83.86799 2093 ft 112 kts 308°
2026-04-17 09:49 30.28182 -83.87492 2093 ft 112 kts 308°
2026-04-17 09:49 30.28682 -83.88180 2092 ft 112 kts 308°
2026-04-17 09:50 30.29179 -83.88865 2090 ft 111 kts 308°
2026-04-17 09:50 30.29671 -83.89546 2093 ft 111 kts 308°
2026-04-17 09:50 30.30169 -83.90233 2093 ft 112 kts 308°
2026-04-17 09:50 30.30670 -83.90922 2093 ft 112 kts 308°
2026-04-17 09:51 30.31166 -83.91608 2094 ft 111 kts 308°
2026-04-17 09:51 30.31662 -83.92288 2092 ft 110 kts 308°
2026-04-17 09:51 30.32151 -83.92957 2092 ft 109 kts 308°
2026-04-17 09:51 30.32638 -83.93625 2090 ft 108 kts 308°
2026-04-17 09:52 30.33125 -83.94290 2091 ft 108 kts 308°
2026-04-17 09:52 30.33609 -83.94949 2091 ft 107 kts 308°
2026-04-17 09:52 30.34083 -83.95594 2090 ft 106 kts 310°
2026-04-17 09:52 30.34722 -83.96004 2091 ft 106 kts 334°
2026-04-17 09:53 30.35400 -83.96353 2095 ft 107 kts 333°
2026-04-17 09:53 30.36090 -83.96713 2096 ft 110 kts 333°
2026-04-17 09:53 30.36791 -83.97079 2100 ft 111 kts 333°
2026-04-17 09:53 30.37520 -83.97390 2098 ft 111 kts 339°
2026-04-17 09:54 30.38263 -83.97635 2097 ft 110 kts 343°
2026-04-17 09:54 30.39006 -83.97854 2098 ft 110 kts 343°
2026-04-17 09:54 30.39750 -83.98073 2097 ft 110 kts 343°
2026-04-17 09:54 30.40491 -83.98292 2094 ft 109 kts 343°
2026-04-17 09:55 30.41225 -83.98507 2093 ft 109 kts 343°
2026-04-17 09:55 30.41959 -83.98722 2094 ft 109 kts 343°
2026-04-17 09:55 30.42697 -83.98936 2094 ft 109 kts 343°
2026-04-17 09:55 30.43434 -83.99150 2093 ft 109 kts 343°
2026-04-17 09:56 30.44168 -83.99362 2096 ft 109 kts 343°
2026-04-17 09:56 30.44902 -83.99574 2095 ft 110 kts 343°
2026-04-17 09:56 30.45649 -83.99791 2097 ft 111 kts 343°
2026-04-17 09:56 30.46230 -84.00280 2089 ft 107 kts 287°
2026-04-17 09:57 30.46089 -84.01104 2094 ft 106 kts 250°
2026-04-17 09:57 30.45841 -84.01911 2100 ft 108 kts 251°
2026-04-17 09:57 30.45589 -84.02735 2102 ft 109 kts 251°
2026-04-17 09:57 30.45337 -84.03560 2101 ft 107 kts 251°
2026-04-17 09:58 30.45088 -84.04375 2103 ft 108 kts 251°
2026-04-17 09:58 30.44836 -84.05191 2103 ft 107 kts 251°
2026-04-17 09:58 30.44666 -84.06025 2097 ft 107 kts 269°
2026-04-17 09:58 30.44661 -84.06882 2098 ft 106 kts 269°
2026-04-17 09:59 30.44651 -84.07741 2098 ft 107 kts 269°
2026-04-17 09:59 30.44641 -84.08602 2100 ft 107 kts 269°
2026-04-17 09:59 30.44631 -84.09474 2102 ft 109 kts 269°
2026-04-17 09:59 30.44622 -84.10359 2101 ft 110 kts 269°
2026-04-17 10:00 30.44609 -84.11240 2103 ft 110 kts 269°
2026-04-17 10:00 30.44599 -84.12126 2106 ft 111 kts 269°
2026-04-17 10:00 30.44587 -84.13009 2108 ft 111 kts 269°
2026-04-17 10:00 30.44580 -84.13905 2105 ft 111 kts 269°
2026-04-17 10:01 30.44563 -84.14788 2104 ft 109 kts 268°
2026-04-17 10:01 30.44542 -84.15665 2102 ft 108 kts 268°
2026-04-17 10:01 30.44522 -84.16532 2100 ft 107 kts 268°
2026-04-17 10:01 30.44502 -84.17393 2102 ft 107 kts 268°
2026-04-17 10:02 30.44481 -84.18265 2105 ft 110 kts 268°
2026-04-17 10:02 30.44459 -84.19163 2103 ft 112 kts 268°
2026-04-17 10:02 30.44437 -84.20072 2104 ft 113 kts 268°
2026-04-17 10:02 30.44412 -84.20988 2108 ft 115 kts 268°
2026-04-17 10:03 30.44385 -84.21919 2110 ft 117 kts 268°
2026-04-17 10:03 30.44360 -84.22888 2108 ft 123 kts 268°
2026-04-17 10:03 30.44332 -84.23885 2109 ft 124 kts 268°
2026-04-17 10:03 30.44306 -84.24881 2109 ft 123 kts 268°
2026-04-17 10:04 30.44282 -84.25879 2107 ft 124 kts 268°
2026-04-17 10:04 30.44257 -84.26879 2110 ft 125 kts 268°
2026-04-17 10:04 30.44233 -84.27884 2109 ft 125 kts 268°
2026-04-17 10:04 30.44208 -84.28872 2109 ft 124 kts 268°
2026-04-17 10:05 30.44183 -84.29876 2108 ft 125 kts 268°
2026-04-17 10:05 30.44155 -84.30913 1908 ft 130 kts 268°
2026-04-17 10:05 30.44128 -84.31957 1715 ft 126 kts 268°
2026-04-17 10:05 30.44102 -84.32946 1510 ft 120 kts 268°
2026-04-17 10:06 30.44075 -84.33898 1307 ft 117 kts 268°
2026-04-17 10:06 30.44049 -84.34836 1104 ft 116 kts 268°
2026-04-17 10:06 30.43874 -84.35699 997 ft 108 kts 229°
2026-04-17 10:06 30.43198 -84.35867 978 ft 94 kts 177°
2026-04-17 10:07 30.42635 -84.35849 880 ft 76 kts 194°
2026-04-17 10:07 30.42133 -84.35927 640 ft 77 kts 178°
2026-04-17 10:07 30.41593 -84.35911 377 ft 77 kts 188°
2026-04-17 10:07 30.41235 -84.35900 206 ft 77 kts 179°
2026-04-17 10:08 30.40736 -84.35891 85 ft 63 kts 181°
2026-04-17 10:08 30.40358 -84.35892 70 ft 48 kts 179°
2026-04-17 10:08 30.40078 -84.35891 60 ft 26 kts 175°
2026-04-17 10:08 30.39976 -84.35831 66 ft 11 kts 152°
2026-04-17 10:09 30.39923 -84.35789 67 ft 8 kts 109°
2026-04-17 10:09 30.39945 -84.35736 67 ft 8 kts 68°
2026-04-17 10:09 30.39977 -84.35665 68 ft 12 kts 49°
2026-04-17 10:09 30.40046 -84.35593 68 ft 15 kts 38°
2026-04-17 10:10 30.40107 -84.35514 73 ft 11 kts 86°
2026-04-17 10:10 30.40132 -84.35470 72 ft 6 kts 353°
2026-04-17 10:10 30.40156 -84.35480 74 ft 0 kts 284°
2026-04-17 10:11 30.40156 -84.35481 74 ft 0 kts 272°